Probability
14 16 18 17 16 14 15 15 11 6 4 3 3 4 5 5 5 6 6 3 1 0 0 0 0 0 0 0 0 0 0 0 0 0 1 4 6 6
12 13 14 13 12 12 13 14 12 8 5 4 3 5 7 7 7 7 8 6 3 1 0 0 0 0 0 0 0 0 0 0 0 0 0 2 4 6
11 10 9 9 8 9 11 12 11 10 8 5 4 6 9 10 9 10 10 9 6 2 0 0 0 0 0 0 0 0 0 0 0 0 0 0 2 4
9 8 7 7 8 9 9 10 10 10 10 8 6 8 11 12 12 12 11 11 7 2 0 0 0 0 0 0 0 0 0 0 0 0 0 0 0 1
8 7 6 7 8 9 9 9 10 10 11 10 8 9 12 13 13 12 12 12 7 2 0 0 0 0 0 0 0 0 0 0 0 0 0 0 0 0
7 6 6 6 7 7 7 7 8 9 10 9 8 8 10 11 11 11 12 11 8 4 2 1 1 1 1 0 0 0 0 0 0 0 0 0 0 0
6 5 5 4 4 4 4 4 5 7 8 6 5 6 7 8 8 8 9 8 7 5 5 4 3 3 2 1 0 0 0 0 0 0 0 0 0 0
5 5 4 3 2 2 1 1 2 4 5 4 3 4 6 6 6 6 6 6 6 6 6 6 5 4 2 1 0 0 0 0 0 0 0 0 0 0
3 3 3 2 1 1 0 0 1 2 2 2 2 2 5 6 6 6 6 5 6 6 4 4 4 4 2 1 0 0 0 0 0 0 0 0 0 0
2 2 3 2 0 0 0 0 1 1 1 0 0 1 3 5 6 6 6 4 4 3 2 2 2 3 2 0 0 0 0 0 0 0 0 0 0 0
2 3 2 1 0 0 0 1 2 2 1 0 0 0 1 1 3 4 4 2 1 1 2 2 2 3 2 1 0 0 0 0 0 0 0 0 0 0
2 2 1 0 0 0 0 1 3 3 1 0 0 0 0 0 1 2 3 2 1 1 3 3 3 2 1 1 1 1 0 0 0 0 0 0 0 0
1 1 0 0 0 0 0 1 2 2 1 1 1 1 0 0 0 1 3 3 2 2 2 3 3 2 1 1 2 2 1 1 0 0 0 0 0 0
0 0 0 0 0 0 0 1 1 1 1 1 1 2 1 0 0 0 2 2 2 1 1 2 3 2 0 0 1 2 2 2 1 0 0 0 0 0
0 0 0 0 0 0 0 0 0 0 0 0 1 2 2 1 0 0 0 1 1 0 0 1 2 1 0 0 0 1 2 2 1 0 0 0 0 0
1 1 1 1 0 0 0 0 0 0 0 0 0 1 2 1 0 0 0 0 0 0 0 0 1 1 0 0 0 0 1 1 1 0 0 0 0 0
2 2 2 2 1 0 0 0 0 0 0 0 0 1 2 2 1 0 0 0 0 0 0 0 0 0 0 0 0 0 0 1 0 0 0 0 0 0
1 2 3 3 2 1 1 0 0 0 0 0 0 0 1 1 1 0 0 0 0 0 0 0 0 0 0 0 0 0 0 0 0 0 0 0 0 0
0 1 3 3 3 3 2 1 0 0 0 0 0 0 0 0 0 0 0 0 0 0 0 0 0 0 0 0 0 0 0 0 0 0 0 0 0 0
0 1 2 3 3 3 2 1 0 0 0 0 0 0 0 0 0 0 0 0 0 0 0 0 0 0 0 0 0 0 0 0 0 0 0 0 0 0
0 0 1 2 3 3 2 1 0 0 0 0 0 0 0 0 0 0 0 0 0 0 0 0 0 0 0 0 0 0 0 0 0 0 0 0 0 0
0 0 1 2 2 1 1 0 0 0 0 0 0 0 0 0 0 0 0 0 0 0 0 0 0 0 0 0 0 0 0 0 0 0 0 0 0 0
0 0 1 1 1 0 0 0 0 0 0 0 0 0 0 0 0 0 0 0 0 0 0 0 0 0 0 0 0 0 0 0 0 0 0 0 0 0
Wind_Speed
5 5 5 4 4 4 5 6 6 7 7 5 4 4 4 4 3 6 8 7 9 10 11 11 11 11 12 12 12 12 12 12 13 13 13 14 14 14
4 4 5 5 4 4 5 5 6 7 8 6 5 5 4 5 5 7 8 7 11 12 12 11 11 11 12 12 11 12 12 13 13 14 14 14 14 14
5 5 5 5 4 4 4 5 5 6 8 7 6 5 6 7 6 7 8 8 7 11 12 12 12 12 12 12 12 12 12 13 13 14 14 14 14 14
5 5 5 4 5 5 4 5 5 6 7 9 7 7 7 7 7 8 7 7 7 7 11 12 12 12 12 12 12 12 11 13 13 13 14 14 15 15
5 5 5 5 6 5 5 6 6 6 6 8 8 6 7 6 7 7 8 6 8 6 9 12 13 13 12 13 12 12 12 12 13 14 14 14 14 14
5 5 6 6 6 6 6 6 7 7 6 7 7 6 6 6 6 6 6 5 6 6 5 7 9 12 13 13 13 13 12 12 12 13 13 13 13 13
5 5 5 4 5 6 7 7 7 7 6 6 7 6 5 5 5 5 6 6 6 6 5 6 6 7 8 11 13 13 12 12 12 12 12 12 12 13
5 5 5 5 5 7 9 9 8 8 8 7 7 7 7 7 6 6 6 6 6 3 5 7 5 6 6 6 8 11 12 12 12 12 12 12 12 12
5 5 5 4 5 6 7 8 9 9 9 9 9 9 9 7 7 8 6 7 7 5 5 7 6 6 6 4 7 9 11 11 12 12 12 12 12 12
5 5 5 5 4 6 8 7 7 6 7 7 8 9 8 7 7 8 7 8 8 6 5 6 5 5 5 4 5 8 10 10 11 11 11 12 12 12
4 4 4 4 3 5 7 7 7 6 5 6 7 8 8 8 7 6 6 6 6 5 3 5 5 4 5 3 3 7 8 9 9 9 9 10 10 10
3 2 0 3 4 4 6 6 7 7 7 6 6 6 7 6 8 7 6 6 6 5 3 3 4 4 4 3 2 2 4 6 8 8 9 10 10 8
4 4 2 1 3 4 6 6 7 8 8 7 6 5 4 4 4 4 5 6 6 6 4 3 4 4 4 3 3 2 2 2 3 4 7 9 10 9
5 5 3 2 3 5 5 5 8 8 6 5 5 4 4 4 3 4 5 5 6 6 5 5 5 4 4 4 4 3 2 3 3 3 3 6 8 9
4 4 5 5 5 5 4 6 6 5 4 5 5 4 4 4 4 4 4 4 5 5 4 5 5 4 5 5 4 3 3 3 3 3 3 4 5 5
4 3 5 5 5 4 4 3 3 3 4 5 5 5 4 4 3 3 3 3 3 3 3 4 5 5 5 5 4 4 4 3 2 3 3 3 4 5
6 4 4 3 4 3 3 3 3 3 3 3 4 5 4 4 3 2 2 3 3 3 2 2 3 4 5 5 4 4 3 3 3 2 3 3 3 3
6 4 4 4 5 4 4 4 3 3 4 4 4 4 4 4 4 3 2 2 3 3 3 2 2 2 3 2 3 4 3 3 2 2 3 3 2 2
4 4 4 4 5 5 4 4 4 4 4 4 4 4 4 4 4 4 3 3 3 3 3 3 3 3 4 3 1 1 2 3 3 2 2 2 2 1
3 4 4 4 5 5 5 5 5 4 4 4 4 4 4 4 4 4 3 4 4 3 3 3 3 3 3 3 3 2 2 3 2 2 2 1 1 1
4 4 4 4 4 4 4 4 5 5 5 4 4 5 5 4 4 4 4 4 4 4 3 3 2 2 4 3 3 2 1 1 2 2 2 2 2 2
4 4 4 4 4 4 4 4 4 4 4 4 4 4 4 4 4 5 5 5 4 4 4 3 2 2 3 3 3 2 1 1 3 5 3 3 2 2
4 4 4 4 4 4 4 5 5 5 5 5 4 4 4 4 4 4 5 4 5 5 4 3 2 2 2 2 2 2 1 0 0 1 2 3 3 2
Wind_Direction
253 246 254 265 265 272 268 268 275 281 278 264 267 268 262 263 250 257 258 228 223 231 236 239 241 243 241 240 239 236 236 234 231 230 229 230 230 231
258 263 262 264 268 267 268 267 267 272 280 283 278 279 281 274 249 261 261 237 228 228 231 234 237 240 240 237 238 233 232 234 231 229 228 230 231 232
254 251 256 267 271 271 267 267 267 267 272 280 281 278 274 272 272 266 262 256 239 214 221 229 234 238 238 235 234 231 229 231 231 229 229 230 232 231
259 262 264 264 263 270 276 274 273 272 272 279 279 274 270 269 269 270 266 259 261 216 213 224 231 233 234 232 229 227 227 227 228 228 229 230 232 232
265 266 271 273 274 277 278 279 278 272 268 271 271 273 271 271 275 269 266 263 265 237 218 222 227 229 230 230 227 225 225 225 225 225 228 229 230 230
270 269 272 277 279 278 274 274 277 277 271 269 270 270 269 267 270 271 270 260 263 262 251 244 229 223 227 227 226 224 223 223 222 222 223 225 227 226
278 277 276 281 288 284 289 290 285 281 280 276 273 273 274 280 277 275 274 275 268 263 260 252 240 237 228 223 224 223 221 219 219 219 220 220 223 225
286 285 276 256 260 251 261 271 278 279 286 285 282 283 281 279 282 278 279 277 275 267 274 273 263 255 247 241 211 207 215 217 217 218 219 219 220 221
284 284 284 293 282 281 264 251 254 252 259 273 282 285 287 288 287 280 276 280 284 284 275 276 272 265 259 242 197 204 211 215 218 218 218 219 220 221
284 285 286 289 303 300 288 283 282 273 257 255 273 281 284 289 280 276 277 275 272 265 256 269 275 276 276 260 200 203 210 216 219 219 219 218 218 221
284 292 296 299 344 311 287 288 289 288 263 249 263 272 280 275 271 271 267 268 277 278 261 267 280 289 286 270 201 190 204 211 215 218 218 215 215 217
295 283 1 309 319 301 288 292 294 299 300 286 264 258 262 257 238 251 266 269 280 283 275 271 279 288 283 277 260 215 202 197 203 211 212 211 207 216
322 323 355 22 289 283 280 291 297 296 291 288 281 277 274 273 266 259 266 270 273 277 280 278 279 279 278 288 291 272 251 224 206 210 211 206 205 213
321 326 349 358 281 270 270 283 286 284 284 289 290 293 296 299 299 295 284 278 274 273 271 273 272 270 271 271 272 261 252 252 238 227 221 192 203 213
320 330 319 298 275 259 241 255 268 279 295 299 302 305 309 310 301 291 286 279 276 270 259 259 261 265 265 264 262 258 261 254 245 241 235 224 223 213
288 274 244 253 260 280 280 265 279 307 310 309 312 311 308 302 295 300 300 293 285 278 266 254 248 251 258 262 260 259 258 252 245 245 247 244 232 222
321 302 310 320 320 321 318 320 315 309 302 307 310 308 305 305 305 300 292 291 287 289 295 289 263 250 247 254 251 251 252 253 244 233 239 244 245 238
302 308 324 327 325 327 326 324 324 325 321 318 314 311 316 319 315 308 303 305 300 295 295 298 293 276 259 242 249 252 255 264 268 241 240 243 243 239
281 310 320 320 321 324 325 325 326 330 325 320 321 320 320 320 323 324 324 319 305 297 296 298 294 282 273 271 242 254 271 276 275 263 254 250 255 252
300 317 323 324 326 328 327 325 323 324 323 322 324 323 323 320 320 324 324 320 311 302 297 293 288 287 284 289 290 282 270 280 270 265 267 264 260 138
322 323 324 324 327 328 326 324 320 320 324 324 324 322 320 320 323 325 323 319 300 296 300 303 312 268 268 263 264 271 327 61 13 290 278 255 240 228
328 326 326 330 332 329 326 326 324 324 321 314 318 321 322 322 326 325 322 321 316 314 313 306 300 279 271 267 273 282 294 62 87 93 64 4 302 268
329 325 327 333 332 329 331 332 330 331 332 329 328 328 326 325 322 323 329 330 327 325 324 323 326 316 307 299 294 285 259 281 295 54 63 85 112 120